GW0980 Weather Reports


Display with metric or nautical units.
time (UTC)temp
F
wind
direction
speed
MPH
gust
MPH
rain 1hr
in
rain 24hr
in
rain mn
in
humidity
%
barometer
mb
20260507060046 53 281 5.0 8.0 0.00 0.00 0.00 83 1022.0
20260507054542 52 248 5.0 9.0 0.00 0.00 0.00 83 1021.9
20260507053039 53 269 6.0 11.0 0.00 0.00 0.00 83 1021.9
20260507051537 53 256 6.0 13.0 0.00 0.00 0.00 83 1021.9
20260507050044 53 267 7.0 12.0 0.00 0.00 0.00 83 1021.9
20260507044544 53 276 6.0 12.0 0.00 0.00 0.00 83 1021.9
20260507043039 53 264 6.0 11.0 0.00 0.00 0.00 82 1022.1
20260507041538 53 273 6.0 14.0 0.00 0.00 0.00 82 1021.9
20260507040037 53 272 7.0 14.0 0.00 0.00 0.00 82 1021.7
20260507034545 53 270 6.0 11.0 0.00 0.00 0.00 82 1021.6
20260507033042 54 268 7.0 17.0 0.00 0.00 0.00 81 1021.6
20260507031542 54 264 7.0 15.0 0.00 0.00 0.00 81 1021.5
20260507030042 54 271 7.0 13.0 0.00 0.00 0.00 80 1021.3
20260507024538 54 278 8.0 11.0 0.00 0.00 0.00 80 1021.3
20260507023037 55 274 7.0 14.0 0.00 0.00 0.00 79 1021.1
20260507021545 55 269 8.0 13.0 0.00 0.00 0.00 79 1021.3
20260507020044 55 271 8.0 15.0 0.00 0.00 0.00 78 1021.1
20260507014549 56 312 7.0 19.0 0.00 0.00 0.00 76 1021.4
20260507013048 57 280 8.0 18.0 0.00 0.00 0.00 75 1021.4
20260507011540 57 290 11.0 15.0 0.00 0.00 0.00 74 1021.5
20260507010052 58 266 9.0 14.0 0.00 0.00 0.00 74 1021.5
20260507004537 58 290 6.0 12.0 0.00 0.00 0.00 74 1021.5
20260507003039 58 269 10.0 17.0 0.00 0.00 0.00 73 1021.3
20260507001552 59 267 9.0 21.0 0.00 0.00 0.00 72 1021.3
20260507000042 59 255 10.0 16.0 0.00 0.00 0.00 71 1021.2
20260506234539 60 270 8.0 14.0 0.00 0.00 0.00 70 1021.3
20260506233100 60 264 7.0 14.0 0.00 0.00 0.00 71 1021.3
20260506231544 60 263 9.0 20.0 0.00 0.00 0.00 71 1021.3
20260506230048 60 257 9.0 16.0 0.00 0.00 0.00 70 1021.3
20260506224543 61 281 10.0 16.0 0.00 0.00 0.00 70 1021.3
20260506223038 61 278 9.0 26.0 0.00 0.00 0.00 69 1021.4
20260506221545 61 262 8.0 12.0 0.00 0.00 0.00 68 1021.3
20260506220042 61 269 10.0 19.0 0.00 0.00 0.00 69 1021.1
20260506214552 61 271 10.0 17.0 0.00 0.00 0.00 69 1021.0
20260506213044 61 294 10.0 16.0 0.00 0.00 0.00 68 1021.0
20260506211542 62 313 6.0 15.0 0.00 0.00 0.00 68 1021.1
20260506210041 62 212 6.0 15.0 0.00 0.00 0.00 68 1021.1
20260506204539 61 281 8.0 14.0 0.00 0.00 0.00 69 1021.1
20260506203037 61 273 8.0 16.0 0.00 0.00 0.00 69 1021.1
20260506201540 61 273 7.0 10.0 0.00 0.00 0.00 70 1021.1
20260506200047 60 284 8.0 14.0 0.00 0.00 0.00 72 1021.4
20260506194546 60 276 7.0 10.0 0.00 0.00 0.00 72 1021.4
20260506193043 59 277 8.0 12.0 0.00 0.00 0.00 73 1021.4
20260506191542 59 352 8.0 13.0 0.00 0.00 0.00 73 1021.5
20260506190046 60 67 6.0 11.0 0.00 0.00 0.00 74 1021.4
20260506184544 60 275 6.0 13.0 0.00 0.00 0.00 73 1021.3
20260506183039 59 280 4.0 7.0 0.00 0.00 0.00 75 1021.4
20260506181540 59 268 2.0 8.0 0.00 0.00 0.00 75 1021.3
20260506180044 58 291 4.0 8.0 0.00 0.00 0.00 76 1021.5
20260506174537 57 260 4.0 9.0 0.00 0.00 0.00 78 1021.4
20260506173044 57 299 5.0 10.0 0.00 0.00 0.00 78 1021.4
20260506171551 57 264 3.0 4.0 0.00 0.00 0.00 78 1021.2
20260506170044 56 0 1.0 3.0 0.00 0.00 0.00 79 1021.2
20260506164553 56 311 4.0 7.0 0.00 0.00 0.00 79 1021.3
20260506163043 56 272 2.0 5.0 0.00 0.00 0.00 80 1021.4
20260506161546 55 282 2.0 5.0 0.00 0.00 0.00 81 1021.2
20260506160046 54 261 2.0 6.0 0.00 0.00 0.00 81 1021.1
20260506154551 54 261 1.0 4.0 0.00 0.00 0.00 82 1021.1
20260506153042 53 0 2.0 4.0 0.00 0.00 0.00 83 1020.9
20260506151542 53 250 0.0 4.0 0.00 0.00 0.00 83 1020.7
20260506150049 52 304 3.0 11.0 0.00 0.00 0.00 84 1020.9
20260506144546 52 285 5.0 10.0 0.00 0.00 0.00 84 1021.0
20260506143038 52 262 5.0 16.0 0.00 0.00 0.00 85 1020.9
20260506141554 52 263 5.0 11.0 0.00 0.00 0.00 85 1020.8
20260506140042 52 281 5.0 13.0 0.00 0.00 0.00 86 1020.4
20260506134546 52 277 4.0 12.0 0.00 0.00 0.00 87 1020.3
20260506133046 51 257 3.0 7.0 0.00 0.00 0.00 87 1020.2
20260506131539 51 300 3.0 9.0 0.00 0.00 0.00 87 1020.2
20260506130037 51 294 3.0 9.0 0.00 0.00 0.00 87 1020.0
20260506124550 52 275 3.0 7.0 0.00 0.00 0.00 86 1019.9
20260506123046 52 276 4.0 11.0 0.00 0.00 0.00 85 1019.7
20260506121551 52 275 4.0 6.0 0.00 0.00 0.00 85 1019.7
20260506120107 53 279 4.0 8.0 0.00 0.00 0.00 85 1020.0
20260506114544 53 275 5.0 9.0 0.00 0.00 0.00 85 1019.8
20260506113039 53 276 6.0 12.0 0.00 0.00 0.00 85 1019.7
20260506111540 53 272 3.0 10.0 0.00 0.00 0.00 86 1019.6
20260506110041 53 314 5.0 14.0 0.00 0.00 0.00 86 1019.3
20260506104541 52 289 6.0 10.0 0.00 0.00 0.00 86 1019.2
20260506103037 52 284 5.0 12.0 0.00 0.00 0.00 86 1019.1
20260506101544 52 263 6.0 12.0 0.00 0.00 0.00 87 1019.0
20260506100042 52 265 5.0 12.0 0.00 0.00 0.00 87 1018.8
20260506094546 52 268 5.0 9.0 0.00 0.00 0.00 88 1018.8
20260506093047 51 286 5.0 11.0 0.00 0.00 0.00 89 1018.6
20260506091542 51 283 5.0 8.0 0.00 0.00 0.00 89 1018.5
20260506090241 51 282 3.0 7.0 0.00 0.00 0.00 90 1018.7
20260506084542 51 307 2.0 5.0 0.00 0.00 0.00 90 1018.6
20260506083047 51 305 2.0 7.0 0.00 0.00 0.00 90 1018.6
20260506081538 51 292 1.0 5.0 0.00 0.00 0.00 90 1018.4
20260506073041 52 280 2.0 5.0 0.00 0.00 0.00 88 1018.1
20260506071551 52 299 1.0 4.0 0.00 0.00 0.00 88 1017.9
20260506070104 52 292 2.0 5.0 0.00 0.00 0.00 88 1017.9
20260506061541 53 276 2.0 7.0 0.00 0.00 0.00 87 1017.8